This is the latest recevied weather packets stored in our database for station/object KC3JUG-3. If no packets are shown the sender has not sent any weather packets the latest 10 day(s).
| Time | Temp. | Humidity | Pressure | Rain* | Wind** | Luminosity | Snow |
|---|---|---|---|---|---|---|---|
| 1777975845 | 14.44° C | 74% | 1011.9 hPa | 0 mm | - | - | - |
| 1777975252 | 14.44° C | 73% | 1012 hPa | 0 mm | - | - | - |
| 1777974045 | 15° C | 72% | 1011.7 hPa | 0 mm | - | - | - |
| 1777973490 | 15° C | 71% | 1011.7 hPa | 0 mm | - | - | - |
| 1777969862 | 15.56° C | 70% | 1011.5 hPa | 0 mm | - | - | - |
| 1777969248 | 15.56° C | 69% | 1011.6 hPa | 0 mm | - | - | - |
| 1777967158 | 15.56° C | 71% | 1011.6 hPa | 0 mm | - | - | - |
| 1777965948 | 15.56° C | 70% | 1011.6 hPa | 0 mm | - | - | - |
| 1777964458 | 15.56° C | 68% | 1011.7 hPa | 0 mm | - | - | - |
| 1777963846 | 16.11° C | 68% | 1011.7 hPa | 0 mm | - | - | - |
| 1777961145 | 16.11° C | 66% | 1011.6 hPa | 0 mm | - | - | - |
| 1777959646 | 15.56° C | 66% | 1011.7 hPa | 0 mm | - | - | - |
| 1777958445 | 16.11° C | 64% | 1011.6 hPa | 0 mm | - | - | - |
| 1777955145 | 16.11° C | 61% | 1011.8 hPa | 0 mm | - | - | - |
| 1777953657 | 16.11° C | 60% | 1011.6 hPa | 0 mm | - | - | - |
| 1777952147 | 16.67° C | 58% | 1011.4 hPa | 0 mm | - | - | - |
| 1777951550 | 16.67° C | 58% | 1011.5 hPa | 0 mm | - | - | - |
| 1777950054 | 16.67° C | 57% | 1011.7 hPa | 0 mm | - | - | - |
| 1777947355 | 16.67° C | 56% | 1011.8 hPa | 0 mm | - | - | - |
| 1777945848 | 17.22° C | 55% | 1012 hPa | 0 mm | - | - | - |
| 1777945553 | 17.22° C | 54% | 1012 hPa | 0 mm | - | - | - |
| 1777944347 | 17.22° C | 53% | 1011.8 hPa | 0 mm | - | - | - |
| 1777944048 | 17.22° C | 53% | 1011.6 hPa | 0 mm | - | - | - |
| 1777943147 | 17.22° C | 53% | 1011.5 hPa | 0 mm | - | - | - |
| 1777942854 | 17.22° C | 53% | 1011.5 hPa | 0 mm | - | - | - |
* Rain latest hour (hover to see other rain measurements)
** Current wind speed in m/s (hover to see current wind gust speed)